Location: Audinghen
(50.8518°N, 1.6129°E)
Time: 06:09:50
(UTC+00:00)

Okean 2 Rocket - Pass Details

Date: 07 August 2020
Orbit: 616 x 642 km, 82.5° (Epoch: 26 September)

Event Time Altitude Azimuth Distance (km) Brightness Sun altitude
Exits shadow 00:41:42 44° 126° (SE) 880 3.6 -22.2°
Maximum altitude 00:42:27 49° 94° (E) 821 3.6 -22.1°
Drops below altitude 10° 00:46:47 10° 20° (NNE) 2,035 6.8 -22.0°
Sets 00:49:06 0° 15° (NNE) 2,952 8.1 -21.9°
